Location: Unspecified
(0.0000°N, 0.0000°E)
Time: 23:33:56
(UTC+00:00)

GONETS D1M 1 - Pass Details

Date: 20 May 2026
Orbit: 1435 x 1447 km, 82.5° (Epoch: 7 June)

Event Time Altitude Azimuth Distance (km) Brightness Sun altitude
Rises 19:21:24 0° 314° (NW) 4,518 10.5 -19.9°
Reaches altitude 10° 19:27:06 10° 283° (WNW) 3,542 9.9 -21.2°
Maximum altitude 19:29:28 11° 267° (W) 3,435 9.5 -21.7°
Drops below altitude 10° 19:31:50 10° 250° (WSW) 3,543 9.3 -22.3°
Sets 19:37:38 0° 219° (SW) 4,522 9.5 -23.6°
